Time,TemperatureF,DewpointF,PressureIn,WindDirection,WindDirectionDegrees,WindSpeedMPH,WindSpeedGustMPH,Humidity,HourlyPrecipIn,Conditions,Clouds,dailyrainin,SoftwareType,DateUTC
2013-03-21 00:03:00,18.0,15.0,29.96,NNW,332,0.0,1.0,89,0.00,,,0.01,,2013-03-21 04:03:00,
2013-03-21 00:13:00,18.0,15.0,29.96,NNW,332,0.0,1.0,89,0.00,,,0.01,,2013-03-21 04:13:00,
2013-03-21 00:23:00,18.0,15.0,29.96,NW,313,0.0,4.0,89,0.00,,,0.01,,2013-03-21 04:23:00,
2013-03-21 00:32:00,17.0,14.0,29.95,NW,305,0.0,6.0,88,0.00,,,0.01,,2013-03-21 04:32:00,
2013-03-21 00:43:00,17.0,14.0,29.95,NW,305,0.0,6.0,88,0.00,,,0.01,,2013-03-21 04:43:00,
2013-03-21 00:53:00,17.0,14.0,29.95,NNW,335,0.0,2.0,87,0.00,,,0.01,,2013-03-21 04:53:00,
2013-03-21 01:02:00,16.0,13.0,29.95,NNW,335,0.0,0.0,87,0.00,,,0.01,,2013-03-21 05:02:00,
2013-03-21 01:12:00,16.0,13.0,29.95,NNW,335,0.0,0.0,87,0.00,,,0.01,,2013-03-21 05:12:00,
2013-03-21 01:22:00,16.0,13.0,29.95,NNW,335,0.0,0.0,87,0.00,,,0.01,,2013-03-21 05:22:00,
2013-03-21 01:32:00,16.0,13.0,29.95,NNW,335,0.0,1.0,87,0.00,,,0.01,,2013-03-21 05:32:00,
2013-03-21 01:43:00,16.0,13.0,29.94,NNW,335,0.0,1.0,87,0.00,,,0.01,,2013-03-21 05:43:00,
2013-03-21 01:52:00,16.0,13.0,29.94,NNW,335,0.0,1.0,87,0.00,,,0.01,,2013-03-21 05:52:00,
2013-03-21 02:02:00,17.0,14.0,29.94,NW,305,0.0,2.0,87,0.00,,,0.01,,2013-03-21 06:02:00,
2013-03-21 02:12:00,17.0,14.0,29.94,NW,305,0.0,2.0,87,0.00,,,0.01,,2013-03-21 06:12:00,
2013-03-21 02:22:00,17.0,14.0,29.94,NW,318,0.0,2.0,87,0.00,,,0.01,,2013-03-21 06:22:00,
2013-03-21 02:32:00,17.0,14.0,29.94,NW,308,0.0,6.0,88,0.00,,,0.01,,2013-03-21 06:32:00,
2013-03-21 02:42:00,17.0,14.0,29.94,NW,308,0.0,6.0,88,0.00,,,0.01,,2013-03-21 06:42:00,
2013-03-21 02:52:00,17.0,14.0,29.93,NW,308,0.0,0.0,88,0.00,,,0.01,,2013-03-21 06:52:00,
2013-03-21 03:02:00,17.0,14.0,29.93,NW,308,0.0,1.0,88,0.00,,,0.01,,2013-03-21 07:02:00,
2013-03-21 03:12:00,17.0,14.0,29.93,NW,308,0.0,1.0,88,0.00,,,0.01,,2013-03-21 07:12:00,
2013-03-21 03:22:00,17.0,14.0,29.93,NW,308,0.0,1.0,88,0.00,,,0.01,,2013-03-21 07:22:00,
2013-03-21 03:32:00,17.0,14.0,29.93,NW,308,0.0,2.0,89,0.00,,,0.01,,2013-03-21 07:32:00,
2013-03-21 03:42:00,17.0,14.0,29.93,NW,308,0.0,2.0,89,0.00,,,0.01,,2013-03-21 07:42:00,
2013-03-21 03:52:00,17.0,14.0,29.93,NW,308,0.0,2.0,89,0.00,,,0.01,,2013-03-21 07:52:00,
2013-03-21 04:02:00,18.0,15.0,29.92,NW,306,0.0,2.0,89,0.00,,,0.01,,2013-03-21 08:02:00,
2013-03-21 04:13:00,17.0,14.0,29.92,NW,308,0.0,2.0,88,0.00,,,0.01,,2013-03-21 08:13:00,
2013-03-21 04:22:00,17.0,14.0,29.92,NW,308,0.0,2.0,88,0.00,,,0.01,,2013-03-21 08:22:00,
2013-03-21 04:33:00,17.0,14.0,29.92,NW,308,0.0,1.0,88,0.00,,,0.01,,2013-03-21 08:33:00,
2013-03-21 04:42:00,17.0,14.0,29.92,NW,308,0.0,1.0,88,0.00,,,0.01,,2013-03-21 08:42:00,
2013-03-21 04:52:00,16.0,13.0,29.91,NW,308,0.0,1.0,88,0.00,,,0.01,,2013-03-21 08:52:00,
2013-03-21 05:02:00,16.0,13.0,29.91,NW,308,0.0,0.0,89,0.00,,,0.01,,2013-03-21 09:02:00,
2013-03-21 05:11:00,16.0,13.0,29.91,NW,308,0.0,0.0,89,0.00,,,0.01,,2013-03-21 09:11:00,
2013-03-21 05:21:00,17.0,15.0,29.91,NW,306,0.0,1.0,90,0.00,,,0.01,,2013-03-21 09:21:00,
2013-03-21 05:33:00,18.0,16.0,29.91,NW,306,0.0,0.0,90,0.00,,,0.01,,2013-03-21 09:33:00,
2013-03-21 05:43:00,18.0,16.0,29.91,NW,306,0.0,0.0,90,0.00,,,0.01,,2013-03-21 09:43:00,
2013-03-21 05:53:00,18.0,16.0,29.91,NW,306,0.0,1.0,90,0.00,,,0.01,,2013-03-21 09:53:00,
2013-03-21 06:02:00,18.0,16.0,29.90,NW,306,0.0,0.0,90,0.00,,,0.00,,2013-03-21 10:02:00,
2013-03-21 06:12:00,18.0,16.0,29.90,NW,306,0.0,0.0,90,0.00,,,0.00,,2013-03-21 10:12:00,
2013-03-21 06:22:00,18.0,16.0,29.90,NW,306,0.0,2.0,91,0.00,,,0.00,,2013-03-21 10:22:00,
2013-03-21 06:33:00,19.0,17.0,29.90,NW,306,0.0,2.0,91,0.00,,,0.00,,2013-03-21 10:33:00,
2013-03-21 06:42:00,19.0,17.0,29.90,NW,306,0.0,2.0,91,0.00,,,0.00,,2013-03-21 10:42:00,
2013-03-21 06:53:00,19.0,17.0,29.90,NW,306,0.0,1.0,91,0.00,,,0.00,,2013-03-21 10:53:00,
2013-03-21 07:02:00,19.0,17.0,29.90,NW,306,0.0,0.0,91,0.00,,,0.00,,2013-03-21 11:02:00,
2013-03-21 07:12:00,19.0,17.0,29.90,NW,306,0.0,0.0,91,0.00,,,0.00,,2013-03-21 11:12:00,
2013-03-21 07:22:00,19.0,17.0,29.91,NW,306,0.0,0.0,91,0.00,,,0.00,,2013-03-21 11:22:00,
2013-03-21 07:33:00,19.0,17.0,29.91,NW,306,0.0,1.0,91,0.00,,,0.00,,2013-03-21 11:33:00,
2013-03-21 07:42:00,19.0,17.0,29.91,NW,306,0.0,1.0,91,0.00,,,0.00,,2013-03-21 11:42:00,
2013-03-21 07:53:00,19.0,17.0,29.91,NW,306,0.0,2.0,91,0.00,,,0.00,,2013-03-21 11:53:00,
2013-03-21 08:02:00,19.0,17.0,29.91,NW,305,0.0,0.0,91,0.00,,,0.00,,2013-03-21 12:02:00,
2013-03-21 08:12:00,19.0,17.0,29.91,NW,305,0.0,0.0,91,0.00,,,0.00,,2013-03-21 12:12:00,
2013-03-21 08:22:00,20.0,18.0,29.91,NW,306,0.0,0.0,91,0.00,,,0.00,,2013-03-21 12:22:00,
2013-03-21 08:32:00,21.0,19.0,29.91,NNW,347,0.0,2.0,91,0.00,,,0.00,,2013-03-21 12:32:00,
2013-03-21 08:42:00,21.0,19.0,29.91,NNW,347,0.0,2.0,91,0.00,,,0.00,,2013-03-21 12:42:00,
2013-03-21 08:53:00,22.0,19.0,29.92,NW,326,0.0,1.0,89,0.00,,,0.00,,2013-03-21 12:53:00,
2013-03-21 09:02:00,23.0,19.0,29.92,WNW,294,0.0,6.0,85,0.00,,,0.00,,2013-03-21 13:02:00,
2013-03-21 09:12:00,23.0,19.0,29.92,WNW,294,0.0,6.0,85,0.00,,,0.00,,2013-03-21 13:12:00,
2013-03-21 09:22:00,23.0,18.0,29.91,NW,318,0.0,2.0,82,0.00,,,0.00,,2013-03-21 13:22:00,
2013-03-21 09:32:00,23.0,17.0,29.92,WNW,288,0.0,2.0,79,0.00,,,0.00,,2013-03-21 13:32:00,
2013-03-21 09:42:00,23.0,17.0,29.92,WNW,288,0.0,2.0,79,0.00,,,0.00,,2013-03-21 13:42:00,
2013-03-21 09:52:00,24.0,18.0,29.92,WNW,296,0.0,4.0,78,0.00,,,0.00,,2013-03-21 13:52:00,
2013-03-21 10:02:00,24.0,18.0,29.92,North,360,1.0,4.0,76,0.00,,,0.00,,2013-03-21 14:02:00,
2013-03-21 10:12:00,25.0,18.0,29.93,West,263,2.0,7.0,75,0.00,,,0.00,,2013-03-21 14:12:00,
2013-03-21 10:22:00,25.0,18.0,29.93,West,263,2.0,7.0,75,0.00,,,0.00,,2013-03-21 14:22:00,
2013-03-21 10:32:00,24.0,17.0,29.93,NW,309,2.0,9.0,75,0.00,,,0.00,,2013-03-21 14:32:00,
2013-03-21 10:42:00,24.0,17.0,29.93,NW,309,2.0,9.0,75,0.00,,,0.00,,2013-03-21 14:42:00,
2013-03-21 10:52:00,24.0,17.0,29.94,NW,323,0.0,9.0,73,0.00,,,0.00,,2013-03-21 14:52:00,
2013-03-21 11:03:00,25.0,17.0,29.94,WNW,284,3.0,9.0,70,0.00,,,0.00,,2013-03-21 15:03:00,
2013-03-21 11:12:00,25.0,16.0,29.94,WSW,253,3.0,16.0,68,0.00,,,0.00,,2013-03-21 15:12:00,
2013-03-21 11:22:00,25.0,16.0,29.94,WSW,253,3.0,16.0,68,0.00,,,0.00,,2013-03-21 15:22:00,
2013-03-21 11:33:00,25.0,16.0,29.95,North,360,1.0,8.0,68,0.00,,,0.00,,2013-03-21 15:33:00,
2013-03-21 11:42:00,25.0,16.0,29.95,North,360,1.0,8.0,68,0.00,,,0.00,,2013-03-21 15:42:00,
2013-03-21 11:53:00,25.0,16.0,29.95,North,360,1.0,8.0,68,0.00,,,0.00,,2013-03-21 15:53:00,
2013-03-21 12:03:00,25.0,16.0,29.96,WNW,302,3.0,15.0,69,0.02,,,0.02,,2013-03-21 16:03:00,
2013-03-21 12:12:00,25.0,16.0,29.96,WNW,302,3.0,15.0,69,0.02,,,0.02,,2013-03-21 16:12:00,
2013-03-21 12:23:00,25.0,16.0,29.96,NNW,342,2.0,11.0,68,0.02,,,0.02,,2013-03-21 16:23:00,
2013-03-21 12:33:00,25.0,16.0,29.96,West,270,2.0,8.0,67,0.02,,,0.02,,2013-03-21 16:33:00,
2013-03-21 12:42:00,25.0,16.0,29.96,West,270,2.0,8.0,67,0.02,,,0.02,,2013-03-21 16:42:00,
2013-03-21 12:53:00,25.0,15.0,29.97,WNW,298,4.0,9.0,66,0.01,,,0.02,,2013-03-21 16:53:00,
2013-03-21 13:02:00,26.0,17.0,29.97,NW,320,0.0,6.0,67,0.00,,,0.02,,2013-03-21 17:02:00,
2013-03-21 13:12:00,26.0,17.0,29.97,NW,320,0.0,6.0,67,0.00,,,0.02,,2013-03-21 17:12:00,
2013-03-21 13:23:00,25.0,16.0,29.98,WNW,289,2.0,10.0,68,0.00,,,0.02,,2013-03-21 17:23:00,
2013-03-21 13:32:00,26.0,17.0,29.97,West,281,5.0,11.0,68,0.00,,,0.02,,2013-03-21 17:32:00,
2013-03-21 13:42:00,26.0,17.0,29.97,West,281,5.0,11.0,68,0.00,,,0.02,,2013-03-21 17:42:00,
2013-03-21 13:53:00,26.0,17.0,29.98,NW,316,2.0,14.0,67,0.00,,,0.02,,2013-03-21 17:53:00,
2013-03-21 14:02:00,26.0,16.0,29.98,WNW,298,2.0,9.0,65,0.00,,,0.02,,2013-03-21 18:02:00,
2013-03-21 14:12:00,26.0,16.0,29.98,WNW,298,2.0,9.0,65,0.00,,,0.02,,2013-03-21 18:12:00,
2013-03-21 14:22:00,27.0,17.0,29.98,WNW,291,1.0,13.0,65,0.00,,,0.02,,2013-03-21 18:22:00,
2013-03-21 14:32:00,27.0,16.0,29.97,NW,312,2.0,16.0,64,0.00,,,0.02,,2013-03-21 18:32:00,
2013-03-21 14:42:00,27.0,16.0,29.97,NW,312,2.0,16.0,64,0.00,,,0.02,,2013-03-21 18:42:00,
2013-03-21 14:52:00,28.0,17.0,29.97,WNW,302,1.0,10.0,63,0.00,,,0.02,,2013-03-21 18:52:00,
2013-03-21 15:02:00,28.0,16.0,29.96,WNW,302,2.0,10.0,61,0.01,,,0.03,,2013-03-21 19:02:00,
2013-03-21 15:12:00,28.0,16.0,29.96,WNW,302,2.0,10.0,61,0.01,,,0.03,,2013-03-21 19:12:00,
2013-03-21 15:22:00,29.0,16.0,29.96,WNW,289,7.0,10.0,59,0.01,,,0.03,,2013-03-21 19:22:00,
2013-03-21 15:32:00,29.0,17.0,29.96,West,275,1.0,10.0,61,0.02,,,0.04,,2013-03-21 19:32:00,
2013-03-21 15:42:00,29.0,17.0,29.96,West,275,1.0,10.0,61,0.02,,,0.04,,2013-03-21 19:42:00,
2013-03-21 15:53:00,29.0,18.0,29.96,West,280,3.0,13.0,62,0.02,,,0.04,,2013-03-21 19:53:00,
2013-03-21 16:02:00,29.0,16.0,29.96,North,360,2.0,10.0,59,0.01,,,0.04,,2013-03-21 20:02:00,
2013-03-21 16:12:00,29.0,16.0,29.96,North,360,2.0,10.0,59,0.01,,,0.04,,2013-03-21 20:12:00,
2013-03-21 16:22:00,29.0,18.0,29.96,North,10,0.0,8.0,64,0.01,,,0.04,,2013-03-21 20:22:00,
2013-03-21 16:33:00,28.0,17.0,29.96,NNW,333,2.0,11.0,63,0.01,,,0.05,,2013-03-21 20:33:00,
2013-03-21 16:42:00,28.0,17.0,29.96,NNW,333,2.0,11.0,63,0.01,,,0.05,,2013-03-21 20:42:00,
2013-03-21 16:53:00,28.0,17.0,29.96,WNW,294,1.0,8.0,63,0.01,,,0.05,,2013-03-21 20:53:00,
2013-03-21 17:02:00,29.0,18.0,29.95,NE,38,0.0,9.0,63,0.01,,,0.05,,2013-03-21 21:02:00,
2013-03-21 17:12:00,29.0,18.0,29.95,NE,38,0.0,9.0,63,0.01,,,0.05,,2013-03-21 21:12:00,
2013-03-21 17:22:00,30.0,18.0,29.95,North,354,1.0,9.0,60,0.01,,,0.05,,2013-03-21 21:22:00,
2013-03-21 17:33:00,29.0,16.0,29.96,NW,313,1.0,13.0,59,0.00,,,0.05,,2013-03-21 21:33:00,
2013-03-21 17:43:00,29.0,16.0,29.96,NW,313,1.0,13.0,59,0.00,,,0.05,,2013-03-21 21:43:00,
2013-03-21 17:53:00,30.0,18.0,29.96,NNW,337,1.0,11.0,60,0.00,,,0.05,,2013-03-21 21:53:00,
2013-03-21 18:02:00,29.0,15.0,29.96,WNW,296,8.0,11.0,56,0.00,,,0.05,,2013-03-21 22:02:00,
2013-03-21 18:13:00,29.0,15.0,29.96,WNW,296,8.0,11.0,56,0.00,,,0.05,,2013-03-21 22:13:00,
2013-03-21 18:23:00,29.0,16.0,29.96,NW,320,1.0,13.0,59,0.00,,,0.05,,2013-03-21 22:23:00,
2013-03-21 18:33:00,29.0,16.0,29.96,North,360,1.0,7.0,58,0.00,,,0.05,,2013-03-21 22:33:00,
2013-03-21 18:42:00,29.0,16.0,29.96,North,360,1.0,7.0,58,0.00,,,0.05,,2013-03-21 22:42:00,
2013-03-21 18:52:00,30.0,16.0,29.95,WNW,296,0.0,7.0,56,0.00,,,0.05,,2013-03-21 22:52:00,
2013-03-21 19:02:00,29.0,14.0,29.95,North,352,1.0,7.0,54,0.00,,,0.05,,2013-03-21 23:02:00,
2013-03-21 19:12:00,29.0,14.0,29.95,North,352,1.0,7.0,54,0.00,,,0.05,,2013-03-21 23:12:00,
2013-03-21 19:22:00,28.0,14.0,29.95,North,353,1.0,14.0,56,0.00,,,0.05,,2013-03-21 23:22:00,
2013-03-21 19:32:00,28.0,16.0,29.95,North,360,0.0,6.0,59,0.00,,,0.05,,2013-03-21 23:32:00,
2013-03-21 19:42:00,28.0,16.0,29.95,North,360,0.0,6.0,59,0.00,,,0.05,,2013-03-21 23:42:00,
2013-03-21 19:53:00,27.0,15.0,29.95,WNW,301,1.0,4.0,59,0.00,,,0.05,,2013-03-21 23:53:00,
2013-03-21 20:02:00,26.0,14.0,29.95,NW,315,0.0,4.0,60,0.00,,,0.05,,2013-03-22 00:02:00,
2013-03-21 20:12:00,26.0,14.0,29.95,NW,315,0.0,4.0,60,0.00,,,0.05,,2013-03-22 00:12:00,
2013-03-21 20:22:00,26.0,15.0,29.96,NW,320,0.0,0.0,62,0.00,,,0.05,,2013-03-22 00:22:00,
2013-03-21 20:32:00,25.0,15.0,29.96,North,3,0.0,4.0,64,0.00,,,0.05,,2013-03-22 00:32:00,
2013-03-21 20:42:00,25.0,15.0,29.96,North,3,0.0,4.0,64,0.00,,,0.05,,2013-03-22 00:42:00,
2013-03-21 20:52:00,24.0,14.0,29.95,North,3,0.0,1.0,65,0.00,,,0.05,,2013-03-22 00:52:00,
2013-03-21 21:02:00,24.0,15.0,29.95,North,3,0.0,0.0,67,0.00,,,0.05,,2013-03-22 01:02:00,
2013-03-21 21:12:00,24.0,15.0,29.95,North,3,0.0,0.0,67,0.00,,,0.05,,2013-03-22 01:12:00,
2013-03-21 21:22:00,23.0,14.0,29.96,North,3,0.0,0.0,68,0.00,,,0.05,,2013-03-22 01:22:00,
2013-03-21 21:32:00,22.0,14.0,29.96,North,3,0.0,0.0,71,0.00,,,0.05,,2013-03-22 01:32:00,
2013-03-21 21:42:00,22.0,14.0,29.96,North,3,0.0,0.0,71,0.00,,,0.05,,2013-03-22 01:42:00,
2013-03-21 21:53:00,20.0,13.0,29.96,North,3,0.0,0.0,73,0.00,,,0.05,,2013-03-22 01:53:00,
2013-03-21 22:02:00,20.0,14.0,29.96,North,3,0.0,0.0,76,0.00,,,0.05,,2013-03-22 02:02:00,
2013-03-21 22:12:00,20.0,14.0,29.96,North,3,0.0,0.0,76,0.00,,,0.05,,2013-03-22 02:12:00,
2013-03-21 22:22:00,19.0,13.0,29.96,North,3,0.0,0.0,76,0.00,,,0.05,,2013-03-22 02:22:00,
2013-03-21 22:32:00,19.0,13.0,29.96,North,3,0.0,0.0,78,0.00,,,0.05,,2013-03-22 02:32:00,
2013-03-21 22:42:00,19.0,13.0,29.96,North,3,0.0,0.0,78,0.00,,,0.05,,2013-03-22 02:42:00,
2013-03-21 22:53:00,18.0,13.0,29.96,North,3,0.0,0.0,79,0.00,,,0.05,,2013-03-22 02:53:00,
2013-03-21 23:02:00,18.0,13.0,29.96,North,3,0.0,0.0,80,0.00,,,0.05,,2013-03-22 03:02:00,
2013-03-21 23:12:00,18.0,13.0,29.96,North,3,0.0,0.0,80,0.00,,,0.05,,2013-03-22 03:12:00,
2013-03-21 23:22:00,18.0,13.0,29.97,North,3,0.0,0.0,80,0.00,,,0.05,,2013-03-22 03:22:00,
2013-03-21 23:33:00,17.0,12.0,29.97,North,3,0.0,0.0,81,0.00,,,0.05,,2013-03-22 03:33:00,
2013-03-21 23:42:00,17.0,12.0,29.97,North,3,0.0,0.0,81,0.00,,,0.05,,2013-03-22 03:42:00,
2013-03-21 23:53:00,17.0,12.0,29.97,North,3,0.0,0.0,81,0.00,,,0.05,,2013-03-22 03:53:00,